Home > Weather > Huntsville > Past weeks

Flag for U.S.A. Weather for the Past 2 Weeks in Huntsville, Alabama, U.S.A.

Now
29 °F

Passing clouds.


Feels Like: 20 °F
Forecast: 23 / 35 °F
Wind: 10 mph from Northeast

Location: Huntsville International / Jones Field

Current Time: Feb 13, 2016 at 4:58:57 AM

Latest Report: Feb 13, 2016 at 3:53 AM


Visibility: 10 mi

Pressure: 30.39 "Hg

Humidity: 64%

Dew point: 18 °F

Location of HuntsvilleLocation

Historic Weather in Huntsville — Graph

°F

Huntsville Temperature Yesterday

Maximum temperature yesterday: 57 °F (at 1:53 PM)
Minimum temperature yesterday: 35 °F (at 5:53 AM)
Average temperature yesterday: 44 °F

High & Low Weather Summary for the Past Weeks

 TemperatureHumidityPressure
High75 °F (Feb 2, 1:53 PM)93% (Feb 3, 2:53 AM)30.49 "Hg (Feb 3, 2:53 AM)
Low21 °F (Feb 10, 1:53 AM)24% (Feb 7, 2:53 PM)29.72 "Hg (Feb 2, 11:53 PM)
Average45 °F60%30.08 "Hg
* Reported Jan 29 3:53 AM — Feb 13 3:53 AM, Huntsville, Weather by CustomWeather, © 2016

Note: Actual official high and low records may vary slightly from our data, if they occured in-between our weather recording intervals... More about our weather records

Advertising

Huntsville Weather History for the Previous 24 Hours

 ConditionsComfort  
Time TempWeatherWind HumidityBarometerVisibility
3:53 AM
Sat, Feb 13
29 °FPassing clouds.10 mph64%30.39 "Hg10 mi
2:53 AM30 °FClear.14 mph61%30.38 "Hg10 mi
1:53 AM31 °FClear.9 mph64%30.37 "Hg10 mi
12:53 AM33 °FClear.7 mph54%30.35 "Hg10 mi
11:53 PM
Fri, Feb 12
35 °FClear.12 mph52%30.34 "Hg10 mi
10:53 PM36 °FClear.13 mph59%30.33 "Hg10 mi
9:53 PM38 °FClear.10 mph58%30.33 "Hg10 mi
8:53 PM40 °FClear.12 mph55%30.31 "Hg10 mi
7:53 PM43 °FClear.15 mph49%30.28 "Hg10 mi
6:53 PM46 °FClear.12 mph46%30.24 "Hg10 mi
5:53 PM49 °FClear.13 mph41%30.20 "Hg10 mi
4:53 PM53 °FPassing clouds.14 mph37%30.16 "Hg10 mi
3:53 PM56 °FSunny.13 mph34%30.14 "Hg10 mi
2:53 PM57 °FPassing clouds.15 mph32%30.12 "Hg10 mi
1:53 PM57 °FPassing clouds.13 mph33%30.11 "Hg10 mi
12:53 PM56 °FPassing clouds.10 mph34%30.12 "Hg10 mi
11:53 AM55 °FPassing clouds.15 mph35%30.14 "Hg10 mi
10:53 AM52 °FSunny.9 mph43%30.16 "Hg10 mi
9:53 AM49 °FSunny.No wind46%30.15 "Hg10 mi
8:53 AM43 °FPassing clouds.No wind51%30.15 "Hg10 mi
7:53 AM37 °FPartly sunny.No wind73%30.15 "Hg10 mi
6:53 AM35 °FPartly sunny.No wind72%30.15 "Hg10 mi
5:53 AM35 °FPassing clouds.No wind70%30.15 "Hg10 mi
4:53 AM36 °FClear.No wind70%30.14 "Hg10 mi
Weather by CustomWeather, © 2016

See weather overviewHow to use our weather pages